Location: Katzenstein
(51.7484°N, 10.2155°E)
Time: 09:30:34
(UTC+00:00)

STARLINK-1152 - Pass Details

Date: 17 February 2020
Orbit: 379 x 380 km, 53.0° (Epoch: 30 March)

Event Time Altitude Azimuth Distance (km) Brightness Sun altitude
Exits shadow 03:36:18 18° 76° (ENE) 1,029 5.8 -27.5°
Drops below altitude 10° 03:37:14 10° 76° (ENE) 1,411 6.7 -27.3°
Enters shadow 04:32:17 -70° 264° (W) 12,398 10.5 -18.9°
Maximum altitude 05:10:02 68° 3° (N) 420 3.0 -13.1°
